AIC251 VAAH-VABB

Flight info

Callsign AIC251
Flight time 0h 49m
Altitude 31000
Route BVR1A BVR R458 IPNIB/N0458F330 R458 BOFIN POKON2A
Aircraft A320/M-SDE3FGHIRWY/LB1

Departure

Time 2026-04-23 17:32
Airport Sardar Vallabh Patel International Airport (VAAH)

Arrival

Time 2026-04-23 18:22
Airport Chhatrapati Shivaji Maharaj International Airport (VABB)
Time Latitude Longitude Altitude Speed Heading
2026-04-23 16:57 23.07126 72.61907 195 ft 0 kts 47°
2026-04-23 16:58 23.07203 72.61816 195 ft 0 kts 44°
2026-04-23 17:13 23.07202 72.61814 187 ft 1 kts 44°
2026-04-23 17:13 23.07190 72.61801 197 ft 3 kts 44°
2026-04-23 17:14 23.07178 72.61788 197 ft 3 kts 61°
2026-04-23 17:14 23.07173 72.61771 195 ft 3 kts 107°
2026-04-23 17:14 23.07182 72.61753 203 ft 3 kts 135°
2026-04-23 17:14 23.07197 72.61738 191 ft 3 kts 140°
2026-04-23 17:15 23.07207 72.61729 197 ft 0 kts 137°
2026-04-23 17:21 23.07207 72.61730 197 ft 1 kts 137°
2026-04-23 17:21 23.07182 72.61754 201 ft 11 kts 137°
2026-04-23 17:21 23.07035 72.61916 203 ft 16 kts 134°
2026-04-23 17:22 23.06958 72.62005 195 ft 18 kts 134°
2026-04-23 17:22 23.06882 72.62187 194 ft 12 kts 131°
2026-04-23 17:23 23.06914 72.62335 192 ft 21 kts 43°
2026-04-23 17:23 23.07090 72.62519 198 ft 30 kts 47°
2026-04-23 17:23 23.07418 72.62868 191 ft 33 kts 45°
2026-04-23 17:24 23.07575 72.63042 204 ft 32 kts 45°
2026-04-23 17:24 23.07661 72.63140 195 ft 25 kts 66°
2026-04-23 17:24 23.07726 72.63259 193 ft 5 kts 42°
2026-04-23 17:25 23.07899 72.63448 189 ft 24 kts 43°
2026-04-23 17:25 23.08023 72.63574 191 ft 24 kts 43°
2026-04-23 17:26 23.08214 72.63785 195 ft 15 kts 43°
2026-04-23 17:26 23.08345 72.63909 193 ft 16 kts 42°
2026-04-23 17:27 23.08498 72.64062 190 ft 11 kts 44°
2026-04-23 17:27 23.08526 72.64090 203 ft 2 kts 44°
2026-04-23 17:27 23.08528 72.64092 206 ft 0 kts 44°
2026-04-23 17:28 23.08544 72.64108 202 ft 12 kts 44°
2026-04-23 17:28 23.08596 72.64162 194 ft 8 kts 43°
2026-04-23 17:28 23.08609 72.64208 196 ft 7 kts 113°
2026-04-23 17:29 23.08587 72.64227 197 ft 6 kts 142°
2026-04-23 17:29 23.08540 72.64277 192 ft 9 kts 134°
2026-04-23 17:29 23.08502 72.64277 199 ft 0 kts 231°
2026-04-23 17:31 23.08498 72.64272 199 ft 7 kts 230°
2026-04-23 17:31 23.08302 72.64065 207 ft 75 kts 225°
2026-04-23 17:31 23.07772 72.63503 198 ft 135 kts 224°
2026-04-23 17:32 23.07000 72.62680 240 ft 174 kts 224°
2026-04-23 17:32 23.06155 72.61761 861 ft 171 kts 227°
2026-04-23 17:32 23.05289 72.60819 1346 ft 182 kts 227°
2026-04-23 17:32 23.04323 72.59813 1587 ft 201 kts 230°
2026-04-23 17:33 23.03303 72.58696 1935 ft 215 kts 230°
2026-04-23 17:33 23.02195 72.57478 2218 ft 238 kts 229°
2026-04-23 17:33 23.00960 72.56150 2559 ft 259 kts 227°
2026-04-23 17:33 22.99653 72.54765 3201 ft 265 kts 227°
2026-04-23 17:34 22.98328 72.53370 3968 ft 267 kts 227°
2026-04-23 17:34 22.97012 72.51985 4761 ft 267 kts 226°
2026-04-23 17:34 22.94321 72.49186 6328 ft 270 kts 221°
2026-04-23 17:35 22.92723 72.48093 7058 ft 275 kts 207°
2026-04-23 17:35 22.88990 72.46998 8570 ft 280 kts 195°
2026-04-23 17:35 22.87080 72.46531 9342 ft 282 kts 195°
2026-04-23 17:36 22.85159 72.46058 10063 ft 284 kts 195°
2026-04-23 17:36 22.83212 72.45574 10594 ft 294 kts 195°
2026-04-23 17:36 22.81168 72.45063 10758 ft 316 kts 194°
2026-04-23 17:36 22.78944 72.44509 10898 ft 339 kts 194°
2026-04-23 17:37 22.76597 72.43925 11185 ft 353 kts 194°
2026-04-23 17:37 22.74176 72.43325 11687 ft 360 kts 193°
2026-04-23 17:37 22.69228 72.42105 12783 ft 370 kts 193°
2026-04-23 17:38 22.66705 72.41481 13342 ft 374 kts 193°
2026-04-23 17:38 22.64146 72.40848 13841 ft 379 kts 193°
2026-04-23 17:38 22.61596 72.40220 14336 ft 383 kts 192°
2026-04-23 17:38 22.58988 72.39578 14834 ft 386 kts 192°
2026-04-23 17:39 22.56364 72.38932 15350 ft 389 kts 192°
2026-04-23 17:39 22.53714 72.38279 15864 ft 392 kts 192°
2026-04-23 17:39 22.51045 72.37619 16367 ft 395 kts 192°
2026-04-23 17:39 22.48356 72.36951 16878 ft 398 kts 192°
2026-04-23 17:40 22.45647 72.36279 17377 ft 401 kts 192°
2026-04-23 17:40 22.42911 72.35603 17881 ft 405 kts 192°
2026-04-23 17:40 22.40188 72.34933 18322 ft 409 kts 192°
2026-04-23 17:40 22.37405 72.34252 18765 ft 412 kts 192°
2026-04-23 17:41 22.34603 72.33566 19224 ft 414 kts 192°
2026-04-23 17:41 22.28947 72.32170 20142 ft 419 kts 192°
2026-04-23 17:41 22.26093 72.31466 20606 ft 422 kts 192°
2026-04-23 17:42 22.20350 72.30058 21480 ft 427 kts 192°
2026-04-23 17:42 22.17441 72.29346 21914 ft 430 kts 192°
2026-04-23 17:42 22.14561 72.28642 22335 ft 432 kts 192°
2026-04-23 17:43 22.11616 72.27921 22752 ft 435 kts 192°
2026-04-23 17:43 22.08733 72.27216 23155 ft 437 kts 192°
2026-04-23 17:43 22.05759 72.26485 23534 ft 440 kts 192°
2026-04-23 17:43 22.02765 72.25748 23870 ft 442 kts 192°
2026-04-23 17:44 21.99773 72.25012 24203 ft 444 kts 192°
2026-04-23 17:44 21.96745 72.24269 24530 ft 446 kts 192°
2026-04-23 17:44 21.90707 72.22788 25174 ft 450 kts 192°
2026-04-23 17:45 21.87644 72.22036 25496 ft 452 kts 192°
2026-04-23 17:45 21.81487 72.20532 26123 ft 456 kts 192°
2026-04-23 17:45 21.78376 72.19824 26421 ft 458 kts 188°
2026-04-23 17:46 21.72017 72.19821 26989 ft 460 kts 169°
2026-04-23 17:46 21.68893 72.20565 27258 ft 461 kts 165°
2026-04-23 17:46 21.65814 72.21377 27532 ft 463 kts 165°
2026-04-23 17:47 21.62680 72.22204 27792 ft 465 kts 165°
2026-04-23 17:47 21.59534 72.23031 28059 ft 466 kts 165°
2026-04-23 17:47 21.53201 72.24685 28556 ft 470 kts 165°
2026-04-23 17:48 21.50033 72.25508 28787 ft 472 kts 166°
2026-04-23 17:48 21.46827 72.26339 28983 ft 474 kts 165°
2026-04-23 17:48 21.43611 72.27173 29184 ft 476 kts 165°
2026-04-23 17:48 21.40393 72.28010 29498 ft 475 kts 165°
2026-04-23 17:49 21.37221 72.28838 29813 ft 474 kts 165°
2026-04-23 17:49 21.34019 72.29675 30094 ft 474 kts 165°
2026-04-23 17:49 21.30819 72.30509 30354 ft 473 kts 165°
2026-04-23 17:49 21.27617 72.31341 30615 ft 473 kts 165°
2026-04-23 17:50 21.24416 72.32173 30793 ft 473 kts 165°
2026-04-23 17:50 21.14929 72.34637 30834 ft 467 kts 166°
2026-04-23 17:51 21.08618 72.36267 30837 ft 467 kts 165°
2026-04-23 17:52 20.99123 72.38731 30838 ft 468 kts 165°
2026-04-23 17:52 20.89623 72.41186 30834 ft 468 kts 165°
2026-04-23 17:53 20.80163 72.43605 30830 ft 468 kts 165°
2026-04-23 17:54 20.73774 72.44902 30833 ft 469 kts 176°
2026-04-23 17:54 20.64235 72.43023 30837 ft 469 kts 201°
2026-04-23 17:55 20.55128 72.39295 30828 ft 470 kts 200°
2026-04-23 17:56 20.49013 72.36821 30823 ft 470 kts 200°
2026-04-23 17:56 20.39843 72.33091 30828 ft 471 kts 201°
2026-04-23 17:57 20.33772 72.30618 30834 ft 470 kts 200°
2026-04-23 17:58 20.24598 72.26890 30828 ft 471 kts 200°
2026-04-23 17:58 20.18477 72.24404 30831 ft 471 kts 201°
2026-04-23 17:59 20.12386 72.21931 30827 ft 472 kts 201°
2026-04-23 17:59 20.06245 72.19445 30838 ft 472 kts 201°
2026-04-23 18:00 20.00107 72.16968 30826 ft 473 kts 201°
2026-04-23 18:00 19.93947 72.14473 30693 ft 472 kts 201°
2026-04-23 18:00 19.90886 72.13235 29821 ft 468 kts 201°
2026-04-23 18:01 19.87910 72.12034 29014 ft 455 kts 201°
2026-04-23 18:01 19.85039 72.10876 28870 ft 429 kts 201°
2026-04-23 18:01 19.82287 72.09839 28468 ft 412 kts 193°
2026-04-23 18:01 19.79501 72.09439 27854 ft 400 kts 178°
2026-04-23 18:02 19.76775 72.09808 27143 ft 391 kts 162°
2026-04-23 18:02 19.74279 72.10871 26418 ft 383 kts 148°
2026-04-23 18:02 19.72142 72.12503 25680 ft 376 kts 136°
2026-04-23 18:02 19.70207 72.14357 24945 ft 373 kts 135°
2026-04-23 18:03 19.68286 72.16188 24244 ft 369 kts 136°
2026-04-23 18:03 19.66407 72.17969 23591 ft 365 kts 136°
2026-04-23 18:03 19.64522 72.19752 22854 ft 362 kts 136°
2026-04-23 18:03 19.62652 72.21526 22431 ft 360 kts 136°
2026-04-23 18:04 19.60797 72.23286 22044 ft 356 kts 136°
2026-04-23 18:04 19.58965 72.25026 21529 ft 351 kts 136°
2026-04-23 18:04 19.57159 72.26742 20841 ft 347 kts 136°
2026-04-23 18:04 19.55360 72.28450 20369 ft 346 kts 136°
2026-04-23 18:05 19.53594 72.30125 19912 ft 344 kts 137°
2026-04-23 18:05 19.51791 72.31834 19297 ft 345 kts 137°
2026-04-23 18:05 19.50025 72.33504 18864 ft 345 kts 137°
2026-04-23 18:05 19.48249 72.35181 18602 ft 340 kts 137°
2026-04-23 18:06 19.46501 72.36832 18129 ft 334 kts 137°
2026-04-23 18:06 19.44771 72.38466 17430 ft 330 kts 137°
2026-04-23 18:06 19.43066 72.40079 16887 ft 329 kts 137°
2026-04-23 18:06 19.41369 72.41689 16473 ft 328 kts 137°
2026-04-23 18:07 19.39680 72.43289 16205 ft 323 kts 137°
2026-04-23 18:07 19.38039 72.44842 15615 ft 320 kts 137°
2026-04-23 18:07 19.36393 72.46397 15085 ft 315 kts 137°
2026-04-23 18:07 19.34772 72.47928 14641 ft 310 kts 137°
2026-04-23 18:08 19.33707 72.48935 14358 ft 309 kts 137°
2026-04-23 18:08 19.31581 72.50944 13783 ft 303 kts 137°
2026-04-23 18:08 19.30013 72.52424 13331 ft 301 kts 138°
2026-04-23 18:08 19.28447 72.53902 12900 ft 301 kts 138°
2026-04-23 18:09 19.26889 72.55373 12481 ft 300 kts 138°
2026-04-23 18:09 19.25336 72.56838 12062 ft 296 kts 138°
2026-04-23 18:09 19.23850 72.58240 11859 ft 285 kts 138°
2026-04-23 18:09 19.22571 72.59808 11619 ft 280 kts 122°
2026-04-23 18:10 19.21797 72.61651 11307 ft 272 kts 106°
2026-04-23 18:10 19.21551 72.63622 10778 ft 271 kts 91°
2026-04-23 18:10 19.21553 72.65615 10207 ft 271 kts 92°
2026-04-23 18:10 19.21548 72.67601 9664 ft 270 kts 93°
2026-04-23 18:11 19.21539 72.69585 9168 ft 270 kts 91°
2026-04-23 18:11 19.21530 72.71564 8814 ft 268 kts 91°
2026-04-23 18:11 19.21520 72.73506 8454 ft 267 kts 91°
2026-04-23 18:11 19.21506 72.75463 8081 ft 265 kts 91°
2026-04-23 18:12 19.21493 72.77408 7723 ft 264 kts 91°
2026-04-23 18:12 19.21479 72.79344 7353 ft 263 kts 91°
2026-04-23 18:12 19.21466 72.81279 7005 ft 262 kts 90°
2026-04-23 18:12 19.21453 72.83189 6670 ft 261 kts 91°
2026-04-23 18:13 19.21438 72.85116 6320 ft 260 kts 90°
2026-04-23 18:13 19.21424 72.87021 5956 ft 258 kts 90°
2026-04-23 18:13 19.21411 72.88889 5612 ft 257 kts 90°
2026-04-23 18:13 19.21399 72.90770 5270 ft 254 kts 90°
2026-04-23 18:14 19.21385 72.92633 4923 ft 252 kts 90°
2026-04-23 18:14 19.21370 72.94487 4557 ft 252 kts 89°
2026-04-23 18:14 19.21355 72.96333 4177 ft 251 kts 89°
2026-04-23 18:14 19.21339 72.98185 3799 ft 251 kts 88°
2026-04-23 18:15 19.21325 73.00028 3443 ft 250 kts 88°
2026-04-23 18:15 19.21310 73.01860 3095 ft 249 kts 87°
2026-04-23 18:15 19.21223 73.03664 2907 ft 257 kts 100°
2026-04-23 18:15 19.20471 73.05388 2898 ft 255 kts 126°
2026-04-23 18:16 19.19159 73.06569 2904 ft 247 kts 152°
2026-04-23 18:16 19.17532 73.07077 2903 ft 247 kts 177°
2026-04-23 18:16 19.15810 73.07050 2909 ft 248 kts 182°
2026-04-23 18:17 19.12358 73.06931 2905 ft 247 kts 182°
2026-04-23 18:17 19.10721 73.06700 2908 ft 229 kts 205°
2026-04-23 18:17 19.09564 73.05754 2910 ft 203 kts 239°
2026-04-23 18:17 19.09110 73.04449 2870 ft 180 kts 271°
2026-04-23 18:18 19.09081 73.03179 2712 ft 167 kts 275°
2026-04-23 18:18 19.09070 73.01983 2526 ft 159 kts 275°
2026-04-23 18:18 19.09057 73.00832 2352 ft 155 kts 275°
2026-04-23 18:18 19.09043 72.99704 2171 ft 152 kts 275°
2026-04-23 18:19 19.09029 72.98589 1982 ft 152 kts 275°
2026-04-23 18:19 19.09015 72.97483 1790 ft 150 kts 275°
2026-04-23 18:19 19.09001 72.96384 1602 ft 149 kts 274°
2026-04-23 18:19 19.08986 72.95306 1409 ft 148 kts 274°
2026-04-23 18:20 19.08972 72.94209 1224 ft 151 kts 275°
2026-04-23 18:20 19.08957 72.93112 1032 ft 147 kts 275°
2026-04-23 18:20 19.08935 72.92041 820 ft 144 kts 270°
2026-04-23 18:20 19.08923 72.90998 654 ft 142 kts 272°
2026-04-23 18:21 19.08910 72.89967 504 ft 138 kts 272°
2026-04-23 18:21 19.08896 72.88962 311 ft 140 kts 271°
2026-04-23 18:21 19.08885 72.87966 138 ft 137 kts 271°
2026-04-23 18:21 19.08876 72.86992 31 ft 122 kts 270°
2026-04-23 18:22 19.08867 72.86351 28 ft 45 kts 269°
2026-04-23 18:22 19.08866 72.86111 24 ft 32 kts 270°
2026-04-23 18:22 19.08918 72.85893 29 ft 30 kts 298°
2026-04-23 18:22 19.09025 72.85704 25 ft 28 kts 287°
2026-04-23 18:23 19.09049 72.85604 25 ft 19 kts 323°
2026-04-23 18:23 19.09106 72.85417 26 ft 6 kts 335°
2026-04-23 18:24 19.09160 72.85406 25 ft 0 kts 353°
2026-04-23 18:24 19.09161 72.85406 25 ft 0 kts 353°